[[{"header":{"parameterUnit":"m.s-1","parameterCategory":1,"la1":30.2992,"la2":30.254,"lo1":-89.0895,"lo2":-89.0443,"dy":0.0025,"dx":0.0025,"nx":19,"ny":19,"refTime":"2026-04-06T21:00:00:Z","depth":0,"parameterNumber":2,"parameterNumberName":"U-component_of_WINDS"},"data":[0,0,0,-4.2149,-4.2155,-4.2378,-4.2379,-4.271,-4.2714,0,0,0,0,0,0,0,0,0,0,0,-4.2108,-4.2112,-4.2149,-4.2155,-4.2378,-4.2379,-4.271,-4.2714,0,0,0,0,0,0,0,0,0,0,0,-4.2107,-4.2111,-4.2115,-4.2156,-4.2378,-4.2379,-4.2709,-4.2525,0,0,0,0,0,0,0,0,0,0,-4.23,-4.2287,-4.211,-4.2115,-4.2157,-4.2378,-4.2379,-4.2515,-4.2536,-4.2628,0,-4.2714,0,-4.2719,-4.2739,-4.274,0,0,0,-4.2137,-4.2269,-4.2306,-4.2115,-4.216,-4.2378,-4.2272,-4.2526,-4.255,-4.2656,-4.2718,-4.273,-4.2725,-4.2741,-4.2743,-4.333,-4.3333,0,0,-4.2124,-4.2163,-4.229,-4.2323,-4.2289,-4.2265,-4.228,-4.254,-4.2612,-4.272,-4.2737,-4.273,-4.2743,-4.2746,-4.3326,-4.3331,0,0,0,-4.2101,-4.2156,-4.2185,-4.2311,-4.2347,-4.2272,-4.2289,-4.26,-4.2606,-4.274,-4.2734,-4.2746,-4.275,-4.3322,-4.3328,-4.3548,0,0,0,-4.2093,-4.2142,-4.218,-4.2207,-4.2343,-4.2476,-4.2344,-4.2588,-4.2616,-4.2732,-4.2746,-4.2754,-4.3318,-4.3325,-4.3533,-4.3648,0,0,0,-4.2085,-4.214,-4.2181,-4.2208,-4.2305,-4.2471,-4.2491,-4.2593,-4.2614,-4.274,-4.2755,-4.3316,-4.3324,-4.352,-4.3626,-4.3818,0,0,0,-4.2089,-4.2372,-4.2185,-4.2499,-4.2304,-4.2603,-4.2489,-4.271,-4.2844,-4.2748,-4.3319,-4.3327,-4.3516,-4.3612,-4.3804,-4.3991,-4.407,0,0,-4.2468,-4.2419,-4.2601,-4.244,-4.2783,-4.2565,-4.2941,-4.3026,-4.3003,-4.3223,-4.3236,-4.3538,-4.3624,-4.3815,-4.4491,-4.4555,0,0,0,-4.2734,-4.2867,-4.2948,-4.3077,-4.3147,-4.322,-4.3243,-4.3275,-4.3459,-4.3123,-4.3654,-4.3704,-4.3814,-4.3903,-4.3957,-4.4052,-4.3368,-4.3367,-4.3366,-4.3333,-4.3285,-4.3584,-4.3565,-4.3691,-4.3711,-4.3811,-4.3857,-4.3773,-4.3899,-4.3967,-4.4383,-4.4487,-4.4528,-4.4627,-4.4055,-4.4056,-4.4057,-4.4058,-4.389,-4.4072,-4.3951,-4.4198,-4.4148,-4.4355,-4.4386,-4.4319,-4.4507,-4.4327,-4.4423,-4.4238,-4.4599,-4.4684,-4.4074,-4.4071,-4.4069,-4.4067,-4.4066,-4.4283,-4.4363,-4.4394,-4.4575,-4.4721,-4.4689,-4.4876,-4.482,-4.477,-4.4863,-4.4933,-4.4929,-4.4924,-4.4898,-4.49,-4.4901,-4.4903,-4.4904,-4.4905,-4.4682,-4.471,-4.4873,-4.4971,-4.5047,-4.514,-4.5162,-4.5236,-4.5305,-4.525,-4.5251,-4.5159,-4.4639,-4.4515,-4.4927,-4.4923,-4.492,-4.4918,-4.4917,-4.5279,-4.5134,-4.5387,-4.5464,-4.5575,-4.5725,-4.5649,-4.5805,-4.5857,-4.5952,-4.5837,-4.5459,-4.5407,-4.5364,-4.5261,-4.5841,-4.5841,-4.5841,-4.5842,-4.5617,-4.5581,-4.5829,-4.5955,-4.6071,-4.6028,-4.632,-4.6339,-4.6337,-4.6367,-4.6273,-4.6128,-4.6086,-4.6059,-4.6,-4.5904,-4.6635,-4.6636,-4.6637,-4.5984,-4.5958,-4.6217,-4.621,-4.6292,-4.6365,-4.6638,-4.679,-4.6756,-4.6668,-4.6391,-4.6358,-4.6124,-4.6049,-4.5964,-4.5874,-4.5695,0,0]},{"header":{"parameterUnit":"m.s-1","parameterCategory":1,"la1":30.2992,"la2":30.254,"lo1":-89.0895,"lo2":-89.0443,"dy":0.0025,"dx":0.0025,"nx":19,"ny":19,"refTime":"2026-04-06T21:00:00:Z","depth":0,"parameterNumber":3,"parameterNumberName":"V-component_of_WINDS"},"data":[0,0,0,-4.2045,-4.2047,-4.213,-4.213,-4.2243,-4.2244,0,0,0,0,0,0,0,0,0,0,0,-4.2027,-4.2028,-4.2044,-4.2047,-4.213,-4.213,-4.2243,-4.2244,0,0,0,0,0,0,0,0,0,0,0,-4.2026,-4.2027,-4.2029,-4.2047,-4.213,-4.213,-4.2243,-4.2177,0,0,0,0,0,0,0,0,0,0,-4.2095,-4.2086,-4.2027,-4.2029,-4.2048,-4.2129,-4.213,-4.2174,-4.2181,-4.2209,0,-4.2238,0,-4.2243,-4.2252,-4.2253,0,0,0,-4.2041,-4.208,-4.2096,-4.2029,-4.2048,-4.2129,-4.2091,-4.2178,-4.2186,-4.2219,-4.2239,-4.2243,-4.2245,-4.2253,-4.2254,-4.2435,-4.2436,0,0,-4.2037,-4.2045,-4.209,-4.2102,-4.2092,-4.2088,-4.2093,-4.2183,-4.2205,-4.224,-4.2246,-4.2247,-4.2254,-4.2255,-4.2434,-4.2435,0,0,0,-4.2027,-4.2042,-4.2056,-4.2097,-4.2112,-4.2091,-4.2097,-4.2201,-4.2205,-4.2247,-4.2248,-4.2255,-4.2256,-4.2433,-4.2435,-4.2495,0,0,0,-4.2024,-4.2036,-4.2054,-4.206,-4.211,-4.2158,-4.2113,-4.2198,-4.2208,-4.2247,-4.2255,-4.2257,-4.2432,-4.2434,-4.2491,-4.2522,0,0,0,-4.2019,-4.2036,-4.205,-4.206,-4.2096,-4.2156,-4.2165,-4.22,-4.2209,-4.2253,-4.2258,-4.2431,-4.2434,-4.2487,-4.2516,-4.257,0,0,0,-4.2015,-4.2104,-4.2051,-4.215,-4.2096,-4.2194,-4.2164,-4.2237,-4.2282,-4.2255,-4.2432,-4.2435,-4.2486,-4.2512,-4.2566,-4.2616,-4.2638,0,0,-4.2132,-4.2119,-4.2176,-4.2131,-4.2241,-4.2181,-4.2298,-4.2332,-4.2328,-4.2399,-4.2403,-4.2492,-4.2516,-4.2569,-4.2763,-4.278,0,0,0,-4.2216,-4.2257,-4.2284,-4.2327,-4.2355,-4.238,-4.2394,-4.2406,-4.2465,-4.2367,-4.2527,-4.2541,-4.2572,-4.2595,-4.261,-4.2635,-4.2446,-4.2446,-4.2446,-4.2392,-4.2382,-4.2475,-4.2475,-4.2517,-4.2529,-4.2561,-4.2578,-4.2558,-4.2595,-4.2616,-4.2735,-4.2762,-4.2773,-4.2799,-4.2643,-4.2643,-4.2644,-4.2644,-4.256,-4.2615,-4.2583,-4.2662,-4.265,-4.2715,-4.2729,-4.2712,-4.2769,-4.2719,-4.2746,-4.2691,-4.2793,-4.2815,-4.2648,-4.2647,-4.2647,-4.2646,-4.2646,-4.2673,-4.2697,-4.271,-4.2768,-4.2814,-4.281,-4.2865,-4.2853,-4.2842,-4.2869,-4.2887,-4.2886,-4.2881,-4.2878,-4.2879,-4.2879,-4.288,-4.288,-4.288,-4.2784,-4.2796,-4.2845,-4.2879,-4.2903,-4.2933,-4.2944,-4.2967,-4.2989,-4.2975,-4.2975,-4.2948,-4.2806,-4.2769,-4.2886,-4.2885,-4.2884,-4.2884,-4.2883,-4.2955,-4.2913,-4.2989,-4.3013,-4.305,-4.3094,-4.3077,-4.3124,-4.314,-4.3168,-4.3134,-4.3033,-4.3018,-4.3006,-4.2975,-4.3138,-4.3138,-4.3138,-4.3138,-4.3048,-4.3039,-4.3112,-4.315,-4.3186,-4.3177,-4.326,-4.3268,-4.327,-4.3279,-4.3254,-4.3213,-4.3201,-4.3193,-4.3177,-4.3148,-4.3352,-4.3352,-4.3352,-4.3151,-4.3144,-4.3218,-4.322,-4.3247,-4.3269,-4.3345,-4.3388,-4.3382,-4.336,-4.3285,-4.3276,-4.3209,-4.3189,-4.3164,-4.314,-4.3086,0,0]}]]